Data No,UTC Date,UTC Time,Latitude,Longitude,Course(deg),Temp(degC),Sal(psu)
569,2023/12/18,9:28,42-36.86N,141-37.00E,210,6.003,
570,2023/12/18,9:29,42-36.61N,141-36.93E,182,6.015,
571,2023/12/18,9:30,42-36.37N,141-37.11E,144,6.361,
572,2023/12/18,9:31,42-36.16N,141-37.38E,136,6.679,
573,2023/12/18,9:32,42-35.94N,141-37.67E,136,6.928,
574,2023/12/18,9:33,42-35.72N,141-37.96E,136,7.128,
575,2023/12/18,9:34,42-35.49N,141-38.25E,136,7.186,
576,2023/12/18,9:35,42-35.26N,141-38.55E,137,7.253,
577,2023/12/18,9:36,42-35.02N,141-38.85E,137,7.263,
578,2023/12/18,9:37,42-34.78N,141-39.14E,138,7.276,
579,2023/12/18,9:38,42-34.56N,141-39.40E,137,7.273,
580,2023/12/18,9:39,42-34.32N,141-39.70E,137,7.291,
581,2023/12/18,9:40,42-34.06N,141-40.02E,138,7.317,
582,2023/12/18,9:41,42-33.81N,141-40.32E,137,7.319,
583,2023/12/18,9:42,42-33.55N,141-40.63E,137,7.326,
584,2023/12/18,9:43,42-33.29N,141-40.95E,137,7.336,
585,2023/12/18,9:44,42-33.04N,141-41.26E,138,7.308,
586,2023/12/18,9:45,42-32.81N,141-41.60E,129,7.294,
587,2023/12/18,9:46,42-32.59N,141-41.99E,127,7.294,
588,2023/12/18,9:47,42-32.38N,141-42.35E,127,7.306,
589,2023/12/18,9:48,42-32.16N,141-42.74E,127,7.316,
590,2023/12/18,9:49,42-31.94N,141-43.11E,128,7.322,
591,2023/12/18,9:50,42-31.72N,141-43.49E,128,7.326,
592,2023/12/18,9:51,42-31.49N,141-43.89E,128,7.322,
593,2023/12/18,9:52,42-31.27N,141-44.26E,128,7.323,
594,2023/12/18,9:53,42-31.04N,141-44.64E,129,7.332,
595,2023/12/18,9:54,42-30.81N,141-45.02E,129,7.33,
596,2023/12/18,9:55,42-30.57N,141-45.41E,129,7.328,
597,2023/12/18,9:56,42-30.34N,141-45.81E,129,7.32,
598,2023/12/18,9:57,42-30.10N,141-46.20E,129,7.304,
599,2023/12/18,9:58,42-29.87N,141-46.58E,129,7.298,
600,2023/12/18,9:59,42-29.63N,141-46.97E,129,7.284,
601,2023/12/18,10:00,42-29.38N,141-47.36E,130,7.269,
602,2023/12/18,10:01,42-29.15N,141-47.75E,129,7.274,
603,2023/12/18,10:02,42-28.91N,141-48.13E,129,7.313,
604,2023/12/18,10:03,42-28.67N,141-48.53E,129,7.303,
605,2023/12/18,10:04,42-28.43N,141-48.91E,130,7.287,
606,2023/12/18,10:05,42-28.19N,141-49.29E,129,7.269,
607,2023/12/18,10:06,42-27.94N,141-49.69E,129,7.26,
608,2023/12/18,10:07,42-27.71N,141-50.07E,130,7.27,
609,2023/12/18,10:08,42-27.47N,141-50.45E,130,7.266,
610,2023/12/18,10:09,42-27.23N,141-50.85E,130,7.258,
611,2023/12/18,10:10,42-26.99N,141-51.23E,130,7.241,
612,2023/12/18,10:11,42-26.74N,141-51.62E,130,7.241,
613,2023/12/18,10:12,42-26.50N,141-52.00E,130,7.241,
614,2023/12/18,10:13,42-26.26N,141-52.39E,130,7.243,
615,2023/12/18,10:14,42-26.01N,141-52.79E,130,7.235,
616,2023/12/18,10:15,42-25.74N,141-53.22E,129,7.224,
617,2023/12/18,10:16,42-25.52N,141-53.56E,130,7.219,
618,2023/12/18,10:17,42-25.28N,141-53.95E,130,7.213,
619,2023/12/18,10:18,42-25.03N,141-54.34E,130,7.189,
620,2023/12/18,10:19,42-24.77N,141-54.75E,130,7.151,
621,2023/12/18,10:20,42-24.53N,141-55.14E,129,7.135,
622,2023/12/18,10:21,42-24.28N,141-55.54E,130,7.123,
623,2023/12/18,10:22,42-24.04N,141-55.93E,130,7.14,
624,2023/12/18,10:23,42-23.79N,141-56.33E,129,7.161,
625,2023/12/18,10:24,42-23.54N,141-56.74E,129,7.162,
626,2023/12/18,10:25,42-23.29N,141-57.14E,129,7.146,
627,2023/12/18,10:26,42-23.04N,141-57.56E,130,7.124,
628,2023/12/18,10:27,42-22.79N,141-57.95E,130,7.109,
629,2023/12/18,10:28,42-22.54N,141-58.36E,130,7.13,
630,2023/12/18,10:29,42-22.28N,141-58.76E,129,7.167,
631,2023/12/18,10:30,42-22.04N,141-59.16E,130,7.229,
632,2023/12/18,10:31,42-21.78N,141-59.57E,130,7.253,
633,2023/12/18,10:32,42-21.54N,141-59.97E,128,7.221,
634,2023/12/18,10:33,42-21.29N,142-00.38E,129,7.161,
635,2023/12/18,10:34,42-21.05N,142-00.78E,129,7.092,
636,2023/12/18,10:35,42-20.81N,142-01.17E,129,7.054,
637,2023/12/18,10:36,42-20.55N,142-01.57E,130,7.044,
638,2023/12/18,10:37,42-20.32N,142-01.97E,129,7.037,
639,2023/12/18,10:38,42-20.07N,142-02.36E,130,7.038,
640,2023/12/18,10:39,42-19.82N,142-02.77E,129,7.032,
641,2023/12/18,10:40,42-19.60N,142-03.16E,124,7.031,
642,2023/12/18,10:41,42-19.40N,142-03.60E,120,7.045,
643,2023/12/18,10:42,42-19.22N,142-04.05E,119,7.131,
644,2023/12/18,10:43,42-19.05N,142-04.48E,119,7.257,
645,2023/12/18,10:44,42-18.86N,142-04.93E,119,7.34,
646,2023/12/18,10:45,42-18.67N,142-05.37E,120,7.383,
647,2023/12/18,10:46,42-18.48N,142-05.83E,119,7.345,
648,2023/12/18,10:47,42-18.29N,142-06.28E,119,7.343,
649,2023/12/18,10:48,42-18.10N,142-06.71E,120,7.337,
650,2023/12/18,10:49,42-17.91N,142-07.17E,121,7.323,
651,2023/12/18,10:50,42-17.72N,142-07.61E,119,7.307,
652,2023/12/18,10:51,42-17.52N,142-08.07E,120,7.306,
653,2023/12/18,10:52,42-17.35N,142-08.48E,120,7.315,
654,2023/12/18,10:53,42-17.15N,142-08.95E,120,7.315,
655,2023/12/18,10:54,42-16.97N,142-09.37E,120,7.307,
656,2023/12/18,10:55,42-16.78N,142-09.82E,119,7.296,
657,2023/12/18,10:56,42-16.59N,142-10.26E,120,7.274,
658,2023/12/18,10:57,42-16.41N,142-10.68E,119,7.252,
659,2023/12/18,10:58,42-16.22N,142-11.12E,119,7.257,
660,2023/12/18,10:59,42-16.02N,142-11.57E,120,7.292,
661,2023/12/18,11:00,42-15.83N,142-12.00E,121,7.305,
662,2023/12/18,11:01,42-15.63N,142-12.46E,120,7.317,
663,2023/12/18,11:02,42-15.45N,142-12.88E,119,7.322,
664,2023/12/18,11:03,42-15.26N,142-13.33E,119,7.328,
665,2023/12/18,11:04,42-15.07N,142-13.77E,119,7.32,
666,2023/12/18,11:05,42-14.88N,142-14.21E,118,7.306,
667,2023/12/18,11:06,42-14.68N,142-14.67E,121,7.298,
668,2023/12/18,11:07,42-14.49N,142-15.09E,120,7.286,
669,2023/12/18,11:08,42-14.31N,142-15.53E,118,7.277,
670,2023/12/18,11:09,42-14.12N,142-15.99E,120,7.266,
671,2023/12/18,11:10,42-13.94N,142-16.42E,119,7.258,
672,2023/12/18,11:11,42-13.75N,142-16.85E,120,7.248,
673,2023/12/18,11:12,42-13.55N,142-17.30E,121,7.234,
674,2023/12/18,11:13,42-13.36N,142-17.72E,121,7.214,
675,2023/12/18,11:14,42-13.16N,142-18.17E,121,7.195,
676,2023/12/18,11:15,42-12.96N,142-18.62E,119,7.17,
677,2023/12/18,11:16,42-12.79N,142-19.05E,118,7.138,
678,2023/12/18,11:17,42-12.60N,142-19.49E,119,7.107,
679,2023/12/18,11:18,42-12.41N,142-19.93E,122,7.083,
680,2023/12/18,11:19,42-12.20N,142-20.40E,120,7.05,
681,2023/12/18,11:20,42-12.02N,142-20.81E,120,7.025,
682,2023/12/18,11:21,42-11.82N,142-21.27E,120,6.986,
683,2023/12/18,11:22,42-11.63N,142-21.72E,120,6.93,
684,2023/12/18,11:23,42-11.44N,142-22.14E,121,6.916,
685,2023/12/18,11:24,42-11.25N,142-22.58E,120,6.919,
686,2023/12/18,11:25,42-11.06N,142-23.03E,120,6.937,
687,2023/12/18,11:26,42-10.87N,142-23.45E,121,6.925,
688,2023/12/18,11:27,42-10.67N,142-23.88E,121,6.891,
689,2023/12/18,11:28,42-10.49N,142-24.31E,121,6.883,
690,2023/12/18,11:29,42-10.30N,142-24.75E,120,6.874,
691,2023/12/18,11:30,42-10.11N,142-25.17E,121,6.845,
692,2023/12/18,11:31,42-09.92N,142-25.61E,118,6.819,
693,2023/12/18,11:32,42-09.74N,142-26.05E,119,6.882,
694,2023/12/18,11:33,42-09.55N,142-26.47E,120,6.945,
695,2023/12/18,11:34,42-09.36N,142-26.92E,120,6.981,
696,2023/12/18,11:35,42-09.15N,142-27.41E,119,6.984,
697,2023/12/18,11:36,42-08.95N,142-27.84E,120,6.986,
698,2023/12/18,11:37,42-08.76N,142-28.31E,118,6.974,
699,2023/12/18,11:38,42-08.59N,142-28.75E,116,6.951,
700,2023/12/18,11:39,42-08.44N,142-29.14E,116,6.925,
701,2023/12/18,11:40,42-08.28N,142-29.58E,115,6.885,
702,2023/12/18,11:41,42-08.10N,142-30.07E,116,6.852,
703,2023/12/18,11:42,42-07.92N,142-30.57E,116,6.851,
704,2023/12/18,11:43,42-07.75N,142-31.00E,116,6.855,
705,2023/12/18,11:44,42-07.60N,142-31.40E,116,6.853,
706,2023/12/18,11:45,42-07.43N,142-31.85E,117,6.84,
707,2023/12/18,11:46,42-07.26N,142-32.29E,116,6.844,
708,2023/12/18,11:47,42-07.08N,142-32.74E,117,6.843,
709,2023/12/18,11:48,42-06.91N,142-33.21E,116,6.842,
710,2023/12/18,11:49,42-06.71N,142-33.69E,118,6.838,
711,2023/12/18,11:50,42-06.53N,142-34.15E,118,6.828,
712,2023/12/18,11:51,42-06.37N,142-34.53E,121,6.819,
713,2023/12/18,11:52,42-06.19N,142-34.96E,119,6.82,
714,2023/12/18,11:53,42-06.01N,142-35.41E,119,6.816,
715,2023/12/18,11:54,42-05.84N,142-35.86E,117,6.811,
716,2023/12/18,11:55,42-05.67N,142-36.30E,117,6.805,
717,2023/12/18,11:56,42-05.49N,142-36.74E,118,6.795,
718,2023/12/18,11:57,42-05.31N,142-37.20E,118,6.797,
719,2023/12/18,11:58,42-05.13N,142-37.65E,118,6.803,
720,2023/12/18,11:59,42-04.94N,142-38.11E,117,6.796,
721,2023/12/18,12:00,42-04.77N,142-38.55E,118,6.807,
722,2023/12/18,12:01,42-04.59N,142-39.01E,119,6.817,
723,2023/12/18,12:02,42-04.40N,142-39.48E,118,6.82,
724,2023/12/18,12:03,42-04.22N,142-39.91E,118,6.809,
725,2023/12/18,12:04,42-04.04N,142-40.37E,117,6.796,
726,2023/12/18,12:05,42-03.86N,142-40.83E,117,6.792,
727,2023/12/18,12:06,42-03.69N,142-41.28E,116,6.801,
728,2023/12/18,12:07,42-03.51N,142-41.74E,116,6.672,
729,2023/12/18,12:08,42-03.34N,142-42.19E,116,6.62,
730,2023/12/18,12:09,42-03.16N,142-42.65E,119,6.606,
731,2023/12/18,12:10,42-02.98N,142-43.09E,117,6.6,
732,2023/12/18,12:11,42-02.79N,142-43.55E,118,6.6,
733,2023/12/18,12:12,42-02.61N,142-44.02E,117,6.612,
734,2023/12/18,12:13,42-02.43N,142-44.47E,117,6.609,
735,2023/12/18,12:14,42-02.25N,142-44.93E,117,6.61,
736,2023/12/18,12:15,42-02.07N,142-45.42E,116,6.611,
737,2023/12/18,12:16,42-01.90N,142-45.84E,117,6.619,
738,2023/12/18,12:17,42-01.72N,142-46.31E,117,6.612,
739,2023/12/18,12:18,42-01.55N,142-46.75E,117,6.606,
740,2023/12/18,12:19,42-01.37N,142-47.21E,118,6.609,
741,2023/12/18,12:20,42-01.18N,142-47.67E,118,6.608,
742,2023/12/18,12:21,42-01.01N,142-48.11E,118,6.603,
743,2023/12/18,12:22,42-00.82N,142-48.57E,119,6.607,
744,2023/12/18,12:23,42-00.65N,142-49.01E,118,6.603,
745,2023/12/18,12:24,42-00.45N,142-49.49E,118,6.61,
746,2023/12/18,12:25,42-00.28N,142-49.92E,118,6.607,
747,2023/12/18,12:26,42-00.09N,142-50.37E,117,6.607,
748,2023/12/18,12:27,41-59.91N,142-50.84E,117,6.617,
749,2023/12/18,12:28,41-59.73N,142-51.29E,118,6.625,
750,2023/12/18,12:29,41-59.54N,142-51.75E,117,6.626,
751,2023/12/18,12:30,41-59.36N,142-52.22E,119,6.623,
752,2023/12/18,12:31,41-59.17N,142-52.66E,119,6.631,
753,2023/12/18,12:32,41-58.98N,142-53.12E,119,6.669,
754,2023/12/18,12:33,41-58.80N,142-53.59E,117,6.695,
755,2023/12/18,12:34,41-58.62N,142-54.03E,120,6.702,
756,2023/12/18,12:35,41-58.43N,142-54.48E,118,6.707,
757,2023/12/18,12:36,41-58.24N,142-54.94E,120,6.707,
758,2023/12/18,12:37,41-58.05N,142-55.39E,118,6.709,
759,2023/12/18,12:38,41-57.86N,142-55.85E,119,6.697,
760,2023/12/18,12:39,41-57.68N,142-56.29E,118,6.675,
761,2023/12/18,12:40,41-57.50N,142-56.75E,118,6.69,
762,2023/12/18,12:41,41-57.31N,142-57.19E,119,6.687,
763,2023/12/18,12:42,41-57.12N,142-57.64E,119,6.695,
764,2023/12/18,12:43,41-56.93N,142-58.09E,119,6.694,
765,2023/12/18,12:44,41-56.73N,142-58.56E,120,6.702,
766,2023/12/18,12:45,41-56.53N,142-59.01E,119,6.731,
767,2023/12/18,12:46,41-56.34N,142-59.46E,119,6.727,
768,2023/12/18,12:47,41-56.14N,142-59.92E,121,6.7,
769,2023/12/18,12:48,41-55.97N,143-00.36E,119,6.657,
770,2023/12/18,12:49,41-55.78N,143-00.81E,117,6.682,
771,2023/12/18,12:50,41-55.59N,143-01.25E,120,6.726,
772,2023/12/18,12:51,41-55.40N,143-01.69E,119,6.742,
773,2023/12/18,12:52,41-55.21N,143-02.17E,118,6.753,
774,2023/12/18,12:53,41-55.03N,143-02.58E,120,6.744,
775,2023/12/18,12:54,41-54.84N,143-03.04E,120,6.745,
776,2023/12/18,12:55,41-54.65N,143-03.48E,120,6.75,
777,2023/12/18,12:56,41-54.46N,143-03.91E,120,6.753,
778,2023/12/18,12:57,41-54.27N,143-04.37E,119,6.746,
779,2023/12/18,12:58,41-54.09N,143-04.81E,118,6.749,
780,2023/12/18,12:59,41-53.91N,143-05.24E,120,6.739,
781,2023/12/18,13:00,41-53.71N,143-05.69E,119,6.739,
782,2023/12/18,13:01,41-53.53N,143-06.12E,119,6.731,
783,2023/12/18,13:02,41-53.34N,143-06.56E,120,6.719,
784,2023/12/18,13:03,41-53.16N,143-06.99E,118,6.706,
785,2023/12/18,13:04,41-52.97N,143-07.43E,120,6.701,
786,2023/12/18,13:05,41-52.78N,143-07.88E,119,6.704,
787,2023/12/18,13:06,41-52.61N,143-08.32E,118,6.703,
788,2023/12/18,13:07,41-52.41N,143-08.77E,120,6.694,
789,2023/12/18,13:08,41-52.22N,143-09.22E,119,6.679,
790,2023/12/18,13:09,41-52.04N,143-09.65E,119,6.668,
791,2023/12/18,13:10,41-51.85N,143-10.10E,120,6.654,
792,2023/12/18,13:11,41-51.67N,143-10.55E,118,6.643,
793,2023/12/18,13:12,41-51.48N,143-11.01E,118,6.628,
794,2023/12/18,13:13,41-51.31N,143-11.47E,115,6.622,
795,2023/12/18,13:14,41-51.19N,143-11.91E,108,6.62,
796,2023/12/18,13:15,41-51.09N,143-12.40E,104,6.643,
797,2023/12/18,13:16,41-51.03N,143-12.89E,96,6.642,
798,2023/12/18,13:17,41-51.01N,143-13.38E,91,6.608,
799,2023/12/18,13:18,41-51.02N,143-13.88E,86,6.598,
800,2023/12/18,13:19,41-51.05N,143-14.35E,85,6.582,
801,2023/12/18,13:20,41-51.08N,143-14.84E,87,6.582,
802,2023/12/18,13:21,41-51.09N,143-15.31E,86,6.569,
803,2023/12/18,13:22,41-51.12N,143-15.79E,84,6.537,
804,2023/12/18,13:23,41-51.16N,143-16.25E,81,6.486,
805,2023/12/18,13:24,41-51.24N,143-16.72E,76,6.465,
806,2023/12/18,13:25,41-51.35N,143-17.18E,72,6.469,
807,2023/12/18,13:26,41-51.48N,143-17.61E,67,6.446,
808,2023/12/18,13:27,41-51.61N,143-18.02E,66,6.255,
809,2023/12/18,13:28,41-51.75N,143-18.47E,68,6.285,
810,2023/12/18,13:29,41-51.87N,143-18.88E,65,6.319,
811,2023/12/18,13:30,41-52.01N,143-19.31E,64,6.287,
812,2023/12/18,13:31,41-52.17N,143-19.71E,61,6.282,
813,2023/12/18,13:32,41-52.36N,143-20.11E,56,6.273,
814,2023/12/18,13:33,41-52.56N,143-20.49E,54,6.318,
815,2023/12/18,13:34,41-52.77N,143-20.87E,54,6.442,
816,2023/12/18,13:35,41-52.98N,143-21.26E,53,6.628,
817,2023/12/18,13:36,41-53.19N,143-21.62E,52,6.792,
818,2023/12/18,13:37,41-53.43N,143-21.99E,48,6.888,
819,2023/12/18,13:38,41-53.66N,143-22.32E,47,6.99,
820,2023/12/18,13:39,41-53.88N,143-22.65E,47,7.064,
821,2023/12/18,13:40,41-54.12N,143-22.99E,47,7.125,
822,2023/12/18,13:41,41-54.35N,143-23.33E,47,7.221,
823,2023/12/18,13:42,41-54.60N,143-23.69E,47,7.244,
824,2023/12/18,13:43,41-54.82N,143-24.01E,47,7.282,
825,2023/12/18,13:44,41-55.07N,143-24.34E,42,7.269,
826,2023/12/18,13:45,41-55.34N,143-24.65E,40,7.257,
827,2023/12/18,13:46,41-55.60N,143-24.94E,39,7.288,
828,2023/12/18,13:47,41-55.88N,143-25.23E,37,7.318,
829,2023/12/18,13:48,41-56.16N,143-25.50E,35,7.342,
830,2023/12/18,13:49,41-56.43N,143-25.75E,33,7.364,
831,2023/12/18,13:50,41-56.73N,143-26.02E,33,7.361,
832,2023/12/18,13:51,41-57.01N,143-26.28E,34,7.328,
833,2023/12/18,13:52,41-57.31N,143-26.55E,34,7.305,
834,2023/12/18,13:53,41-57.61N,143-26.82E,35,7.29,
835,2023/12/18,13:54,41-57.91N,143-27.11E,34,7.273,
836,2023/12/18,13:55,41-58.21N,143-27.37E,33,7.273,
837,2023/12/18,13:56,41-58.51N,143-27.63E,32,7.281,
838,2023/12/18,13:57,41-58.82N,143-27.91E,34,7.351,
839,2023/12/18,13:58,41-59.12N,143-28.18E,33,7.416,
840,2023/12/18,13:59,41-59.42N,143-28.45E,34,7.471,
841,2023/12/18,14:00,41-59.74N,143-28.73E,32,7.557,
842,2023/12/18,14:01,42-00.04N,143-28.98E,32,7.599,
843,2023/12/18,14:02,42-00.34N,143-29.25E,33,7.621,
844,2023/12/18,14:03,42-00.66N,143-29.52E,32,7.647,
845,2023/12/18,14:04,42-00.95N,143-29.78E,32,7.671,
846,2023/12/18,14:05,42-01.27N,143-30.04E,30,7.69,
847,2023/12/18,14:06,42-01.59N,143-30.29E,31,7.707,
848,2023/12/18,14:07,42-01.90N,143-30.53E,29,7.727,
849,2023/12/18,14:08,42-02.21N,143-30.79E,32,7.74,
850,2023/12/18,14:09,42-02.52N,143-31.06E,32,7.741,
851,2023/12/18,14:10,42-02.83N,143-31.33E,33,7.725,
852,2023/12/18,14:11,42-03.14N,143-31.59E,33,7.711,
853,2023/12/18,14:12,42-03.45N,143-31.87E,33,7.682,
854,2023/12/18,14:13,42-03.76N,143-32.13E,32,7.664,
855,2023/12/18,14:14,42-04.08N,143-32.40E,32,7.65,
856,2023/12/18,14:15,42-04.40N,143-32.68E,34,7.649,
857,2023/12/18,14:16,42-04.69N,143-32.96E,35,7.651,
858,2023/12/18,14:17,42-05.00N,143-33.26E,36,7.651,
859,2023/12/18,14:18,42-05.30N,143-33.56E,36,7.647,
860,2023/12/18,14:19,42-05.61N,143-33.85E,34,7.639,
861,2023/12/18,14:20,42-05.92N,143-34.13E,33,7.61,
862,2023/12/18,14:21,42-06.23N,143-34.40E,33,7.588,
863,2023/12/18,14:22,42-06.55N,143-34.69E,34,7.569,
864,2023/12/18,14:23,42-06.86N,143-34.96E,32,7.559,
865,2023/12/18,14:24,42-07.16N,143-35.22E,32,7.554,
866,2023/12/18,14:25,42-07.48N,143-35.49E,32,7.547,
867,2023/12/18,14:26,42-07.78N,143-35.76E,33,7.54,
868,2023/12/18,14:27,42-08.09N,143-36.03E,32,7.543,
869,2023/12/18,14:28,42-08.40N,143-36.30E,33,7.553,
870,2023/12/18,14:29,42-08.71N,143-36.57E,33,7.56,
871,2023/12/18,14:30,42-09.01N,143-36.83E,31,7.575,
872,2023/12/18,14:31,42-09.32N,143-37.08E,31,7.556,
873,2023/12/18,14:32,42-09.62N,143-37.34E,33,7.533,
874,2023/12/18,14:33,42-09.93N,143-37.61E,32,7.52,
875,2023/12/18,14:34,42-10.23N,143-37.87E,33,7.511,
876,2023/12/18,14:35,42-10.54N,143-38.14E,33,7.474,
877,2023/12/18,14:36,42-10.84N,143-38.40E,33,7.414,
878,2023/12/18,14:37,42-11.15N,143-38.67E,31,7.399,
879,2023/12/18,14:38,42-11.46N,143-38.93E,31,7.386,
880,2023/12/18,14:39,42-11.77N,143-39.19E,31,7.411,
881,2023/12/18,14:40,42-12.08N,143-39.45E,31,7.458,
882,2023/12/18,14:41,42-12.39N,143-39.70E,30,7.458,
883,2023/12/18,14:42,42-12.70N,143-39.95E,31,7.401,
884,2023/12/18,14:43,42-13.03N,143-40.23E,32,7.319,
885,2023/12/18,14:44,42-13.32N,143-40.48E,32,7.29,
886,2023/12/18,14:45,42-13.64N,143-40.73E,29,7.312,
887,2023/12/18,14:46,42-13.97N,143-40.97E,28,7.392,
888,2023/12/18,14:47,42-14.28N,143-41.20E,28,7.437,
889,2023/12/18,14:48,42-14.61N,143-41.44E,28,7.379,
890,2023/12/18,14:49,42-14.93N,143-41.68E,28,7.152,
891,2023/12/18,14:50,42-15.25N,143-41.91E,27,6.934,
892,2023/12/18,14:51,42-15.57N,143-42.14E,28,6.824,
893,2023/12/18,14:52,42-15.89N,143-42.38E,28,6.768,
894,2023/12/18,14:53,42-16.22N,143-42.62E,28,6.731,
895,2023/12/18,14:54,42-16.54N,143-42.85E,28,6.71,
896,2023/12/18,14:55,42-16.88N,143-43.10E,28,6.698,
897,2023/12/18,14:56,42-17.19N,143-43.33E,28,6.734,
898,2023/12/18,14:57,42-17.52N,143-43.58E,28,6.753,
899,2023/12/18,14:58,42-17.85N,143-43.82E,28,6.755,
900,2023/12/18,14:59,42-18.18N,143-44.05E,28,6.758,
901,2023/12/18,15:00,42-18.52N,143-44.31E,29,6.724,
902,2023/12/18,15:01,42-18.84N,143-44.54E,27,6.706,
903,2023/12/18,15:02,42-19.17N,143-44.78E,28,6.692,
904,2023/12/18,15:03,42-19.51N,143-45.03E,29,6.67,
905,2023/12/18,15:04,42-19.83N,143-45.27E,29,6.668,
906,2023/12/18,15:05,42-20.16N,143-45.53E,29,6.679,
907,2023/12/18,15:06,42-20.49N,143-45.79E,30,6.687,
908,2023/12/18,15:07,42-20.80N,143-46.02E,28,6.692,
909,2023/12/18,15:08,42-21.13N,143-46.27E,29,6.692,
910,2023/12/18,15:09,42-21.45N,143-46.52E,29,6.696,
911,2023/12/18,15:10,42-21.78N,143-46.77E,29,6.704,
912,2023/12/18,15:11,42-22.10N,143-47.01E,29,6.736,
913,2023/12/18,15:12,42-22.43N,143-47.26E,29,6.75,
914,2023/12/18,15:13,42-22.76N,143-47.51E,30,6.739,
915,2023/12/18,15:14,42-23.09N,143-47.77E,28,6.718,
916,2023/12/18,15:15,42-23.42N,143-48.01E,29,6.692,
917,2023/12/18,15:16,42-23.74N,143-48.26E,29,6.681,
918,2023/12/18,15:17,42-24.06N,143-48.51E,30,6.674,
919,2023/12/18,15:18,42-24.40N,143-48.77E,29,6.655,
920,2023/12/18,15:19,42-24.72N,143-49.01E,29,6.646,
921,2023/12/18,15:20,42-25.05N,143-49.26E,29,6.645,
922,2023/12/18,15:21,42-25.38N,143-49.52E,29,6.652,
923,2023/12/18,15:22,42-25.70N,143-49.76E,29,6.661,
924,2023/12/18,15:23,42-26.03N,143-50.02E,29,6.668,
925,2023/12/18,15:24,42-26.35N,143-50.26E,29,6.675,
926,2023/12/18,15:25,42-26.68N,143-50.51E,29,6.838,
927,2023/12/18,15:26,42-27.01N,143-50.77E,30,7.034,
928,2023/12/18,15:27,42-27.32N,143-51.01E,29,6.98,
929,2023/12/18,15:28,42-27.65N,143-51.26E,28,6.944,
930,2023/12/18,15:29,42-27.98N,143-51.51E,30,6.931,
931,2023/12/18,15:30,42-28.30N,143-51.75E,30,6.987,
932,2023/12/18,15:31,42-28.62N,143-52.01E,30,7.033,
933,2023/12/18,15:32,42-28.93N,143-52.26E,30,7.074,
934,2023/12/18,15:33,42-29.26N,143-52.52E,30,7.149,
935,2023/12/18,15:34,42-29.58N,143-52.76E,29,7.183,
936,2023/12/18,15:35,42-29.91N,143-53.01E,29,7.206,
937,2023/12/18,15:36,42-30.24N,143-53.26E,29,7.185,
938,2023/12/18,15:37,42-30.56N,143-53.51E,30,7.176,
939,2023/12/18,15:38,42-30.89N,143-53.77E,29,7.18,
940,2023/12/18,15:39,42-31.21N,143-54.02E,29,7.185,
941,2023/12/18,15:40,42-31.54N,143-54.26E,28,7.212,
942,2023/12/18,15:41,42-31.87N,143-54.52E,29,7.24,
943,2023/12/18,15:42,42-32.19N,143-54.77E,30,7.245,
944,2023/12/18,15:43,42-32.54N,143-55.04E,29,7.232,
945,2023/12/18,15:44,42-32.85N,143-55.27E,28,7.218,
946,2023/12/18,15:45,42-33.19N,143-55.52E,29,7.21,
947,2023/12/18,15:46,42-33.52N,143-55.78E,30,7.196,
948,2023/12/18,15:47,42-33.83N,143-56.02E,29,7.165,
949,2023/12/18,15:48,42-34.16N,143-56.27E,28,7.085,
950,2023/12/18,15:49,42-34.49N,143-56.50E,28,7.032,
951,2023/12/18,15:50,42-34.81N,143-56.74E,29,7.019,
952,2023/12/18,15:51,42-35.15N,143-57.00E,29,7.037,
953,2023/12/18,15:52,42-35.48N,143-57.24E,28,7.076,
954,2023/12/18,15:53,42-35.80N,143-57.48E,28,7.092,
955,2023/12/18,15:54,42-36.12N,143-57.73E,29,7.1,
956,2023/12/18,15:55,42-36.46N,143-57.98E,28,7.099,
957,2023/12/18,15:56,42-36.80N,143-58.22E,28,7.107,
958,2023/12/18,15:57,42-37.12N,143-58.46E,29,7.115,
959,2023/12/18,15:58,42-37.45N,143-58.72E,30,7.112,
960,2023/12/18,15:59,42-37.77N,143-58.98E,30,7.108,
961,2023/12/18,16:00,42-38.10N,143-59.24E,31,7.106,
962,2023/12/18,16:01,42-38.43N,143-59.51E,31,7.112,
963,2023/12/18,16:02,42-38.75N,143-59.77E,31,7.112,
964,2023/12/18,16:03,42-39.08N,144-00.04E,30,7.112,
965,2023/12/18,16:04,42-39.42N,144-00.31E,30,7.101,
966,2023/12/18,16:05,42-39.74N,144-00.56E,30,7.11,
967,2023/12/18,16:06,42-40.07N,144-00.83E,31,7.11,
968,2023/12/18,16:07,42-40.40N,144-01.09E,30,7.107,
969,2023/12/18,16:08,42-40.73N,144-01.35E,30,7.104,
970,2023/12/18,16:09,42-41.06N,144-01.61E,29,7.107,
971,2023/12/18,16:10,42-41.40N,144-01.88E,30,7.101,
972,2023/12/18,16:11,42-41.73N,144-02.15E,31,7.107,
973,2023/12/18,16:12,42-42.06N,144-02.41E,30,7.123,
974,2023/12/18,16:13,42-42.39N,144-02.67E,29,7.135,
975,2023/12/18,16:14,42-42.72N,144-02.93E,30,7.127,
976,2023/12/18,16:15,42-43.05N,144-03.19E,30,7.122,
977,2023/12/18,16:16,42-43.38N,144-03.45E,30,7.126,
978,2023/12/18,16:17,42-43.71N,144-03.71E,30,7.123,
979,2023/12/18,16:18,42-44.04N,144-03.98E,30,7.125,
980,2023/12/18,16:19,42-44.38N,144-04.25E,30,7.126,
981,2023/12/18,16:20,42-44.72N,144-04.52E,31,7.125,
982,2023/12/18,16:21,42-45.04N,144-04.78E,30,7.114,
983,2023/12/18,16:22,42-45.38N,144-05.04E,29,7.111,
984,2023/12/18,16:23,42-45.70N,144-05.29E,29,7.115,
985,2023/12/18,16:24,42-46.05N,144-05.54E,29,7.1,
986,2023/12/18,16:25,42-46.37N,144-05.79E,29,7.088,
987,2023/12/18,16:26,42-46.72N,144-06.06E,30,7.077,
988,2023/12/18,16:27,42-47.05N,144-06.32E,30,7.074,
989,2023/12/18,16:28,42-47.40N,144-06.59E,30,7.056,
990,2023/12/18,16:29,42-47.73N,144-06.85E,30,7.059,
991,2023/12/18,16:30,42-48.06N,144-07.11E,30,7.065,
992,2023/12/18,16:31,42-48.40N,144-07.38E,29,7.071,
993,2023/12/18,16:32,42-48.74N,144-07.63E,29,7.077,
994,2023/12/18,16:33,42-49.08N,144-07.89E,29,7.083,
995,2023/12/18,16:34,42-49.42N,144-08.16E,30,7.067,
996,2023/12/18,16:35,42-49.75N,144-08.42E,30,7.045,
997,2023/12/18,16:36,42-50.09N,144-08.68E,29,7.017,
998,2023/12/18,16:37,42-50.43N,144-08.94E,30,7.01,
999,2023/12/18,16:38,42-50.76N,144-09.21E,31,6.996,
1000,2023/12/18,16:39,42-51.12N,144-09.50E,30,6.97,
1001,2023/12/18,16:40,42-51.43N,144-09.74E,29,6.955,
1002,2023/12/18,16:41,42-51.77N,144-10.01E,30,6.951,
1003,2023/12/18,16:42,42-52.13N,144-10.30E,30,6.961,
1004,2023/12/18,16:43,42-52.44N,144-10.54E,30,6.972,
1005,2023/12/18,16:44,42-52.78N,144-10.81E,29,6.975,
1006,2023/12/18,16:45,42-53.11N,144-11.07E,29,6.96,
1007,2023/12/18,16:46,42-53.45N,144-11.33E,30,6.958,
1008,2023/12/18,16:47,42-53.78N,144-11.60E,31,6.954,
1009,2023/12/18,16:48,42-54.11N,144-11.88E,32,6.938,
1010,2023/12/18,16:49,42-54.44N,144-12.17E,32,6.941,
1011,2023/12/18,16:50,42-54.77N,144-12.44E,31,6.93,
1012,2023/12/18,16:51,42-55.10N,144-12.71E,31,6.901,
1013,2023/12/18,16:52,42-55.44N,144-12.99E,32,6.851,
1014,2023/12/18,16:53,42-55.75N,144-13.26E,31,6.823,
1015,2023/12/18,16:54,42-56.08N,144-13.54E,32,6.859,
1016,2023/12/18,16:55,42-56.41N,144-13.81E,31,6.822,